FW5354 Weather Reports


Display with metric or nautical units.
time (UTC)temp
F
wind
direction
speed
MPH
gust
MPH
rain 1hr
in
rain 24hr
in
rain mn
in
humidity
%
barometer
mb
20260506061559 77 103 0.0 1.0 0.00 0.00 0.00 72 1007.0
20260506044554 77 97 0.0 5.0 0.00 0.00 0.00 75 1006.8
20260506043052 78 101 1.0 3.0 0.00 0.00 0.00 76 1007.0
20260506041605 78 103 1.0 4.0 0.00 0.00 0.00 76 1007.0
20260506040053 78 103 1.0 3.0 0.00 0.00 0.00 76 1006.9
20260506034555 78 101 1.0 4.0 0.00 0.00 0.00 76 1006.5
20260506033051 78 102 1.0 3.0 0.00 0.00 0.00 77 1006.6
20260506031554 78 101 0.0 5.0 0.00 0.00 0.00 77 1006.4
20260506030050 78 117 1.0 4.0 0.00 0.00 0.00 77 1006.1
20260506024549 79 99 2.0 5.0 0.00 0.00 0.00 77 1006.0
20260506023102 79 106 1.0 7.0 0.00 0.00 0.00 77 1005.6
20260506021607 79 102 2.0 6.0 0.00 0.00 0.00 77 1005.5
20260506020046 79 102 0.0 2.0 0.00 0.00 0.00 76 1005.5
20260506014545 79 101 0.0 4.0 0.00 0.00 0.00 76 1005.3
20260506013053 80 103 1.0 5.0 0.00 0.00 0.00 76 1005.0
20260506011553 80 107 0.0 5.0 0.00 0.00 0.00 76 1004.7
20260506010042 80 102 1.0 4.0 0.00 0.00 0.00 75 1004.5
20260506004540 80 100 1.0 3.0 0.00 0.00 0.00 75 1004.4
20260506003041 81 89 1.0 5.0 0.00 0.00 0.00 74 1004.4
20260506001541 81 98 1.0 5.0 0.00 0.00 0.00 75 1004.3
20260506000040 81 106 1.0 4.0 0.00 0.00 0.00 74 1004.4
20260505234538 82 99 2.0 6.0 0.00 0.00 0.00 74 1004.3
20260505233038 82 95 3.0 7.0 0.00 0.00 0.00 74 1004.2
20260505231635 82 101 1.0 4.0 0.00 0.00 0.00 74 1004.1
20260505230034 83 99 2.0 4.0 0.00 0.00 0.00 73 1004.2
20260505224533 83 93 2.0 5.0 0.00 0.00 0.00 73 1004.3
20260505223032 83 96 2.0 8.0 0.00 0.00 0.00 71 1004.3
20260505221536 84 89 1.0 4.0 0.00 0.00 0.00 71 1004.3
20260505220034 85 105 1.0 3.0 0.00 0.00 0.00 70 1004.4
20260505214548 85 105 0.0 3.0 0.00 0.00 0.00 70 1004.6
20260505213132 85 110 1.0 7.0 0.00 0.00 0.00 70 1004.7
20260505211528 85 94 1.0 5.0 0.00 0.00 0.00 70 1004.8
20260505210026 85 98 2.0 6.0 0.00 0.00 0.00 70 1005.0
20260505204526 85 108 1.0 6.0 0.00 0.00 0.00 70 1005.2
20260505203030 86 110 2.0 5.0 0.00 0.00 0.00 68 1005.5
20260505201530 85 125 1.0 7.0 0.00 0.00 0.00 71 1005.7
20260505200020 84 103 1.0 4.0 0.00 0.00 0.00 72 1006.0
20260505194517 84 98 1.0 3.0 0.00 0.00 0.00 72 1006.1
20260505193015 83 110 2.0 4.0 0.00 0.00 0.00 73 1006.2
20260505191517 84 101 0.0 4.0 0.00 0.00 0.00 72 1006.2
20260505190012 82 106 1.0 3.0 0.00 0.00 0.00 74 1006.3
20260505184508 82 98 2.0 4.0 0.00 0.00 0.00 74 1006.5
20260505183012 82 97 1.0 3.0 0.00 0.00 0.00 74 1006.6
20260505181508 82 103 0.0 3.0 0.00 0.00 0.00 75 1006.7
20260505180008 81 103 1.0 3.0 0.00 0.00 0.00 75 1006.8
20260505174506 80 110 0.0 2.0 0.00 0.00 0.00 76 1006.9
20260505173001 80 93 0.0 7.0 0.00 0.00 0.00 76 1007.2
20260505171601 80 117 0.0 3.0 0.00 0.00 0.00 76 1007.2
20260505170111 79 98 1.0 4.0 0.00 0.00 0.00 76 1007.2
20260505164558 79 96 1.0 5.0 0.00 0.00 0.00 76 1007.4
20260505163059 79 116 0.0 3.0 0.00 0.00 0.00 76 1007.2
20260505161614 78 95 1.0 3.0 0.00 0.00 0.00 77 1007.2
20260505153101 76 87 1.0 3.0 0.00 0.00 0.00 74 1007.1
20260505151600 76 105 0.0 3.0 0.00 0.00 0.00 76 1007.0
20260505124544 73 112 0.0 2.0 0.00 0.00 0.00 70 1006.4
20260505123043 72 103 0.0 2.0 0.00 0.00 0.00 69 1006.5
20260505121603 72 101 0.0 2.0 0.00 0.00 0.00 68 1006.3
20260505120048 71 102 0.0 2.0 0.00 0.00 0.00 69 1006.2
20260505114547 71 103 0.0 2.0 0.00 0.00 0.00 69 1006.0
20260505113048 71 103 0.0 2.0 0.00 0.00 0.00 70 1006.2
20260505111545 71 100 0.0 3.0 0.00 0.00 0.00 70 1006.2
20260505101551 71 101 0.0 2.0 0.00 0.00 0.00 72 1006.3
20260505100040 71 99 0.0 3.0 0.00 0.00 0.00 73 1006.2
20260505094540 71 102 0.0 2.0 0.00 0.00 0.00 73 1006.4
20260505093042 71 101 0.0 0.0 0.00 0.00 0.00 73 1006.3
20260505091540 70 101 0.0 0.0 0.00 0.00 0.00 73 1006.5
20260505090048 70 101 0.0 0.0 0.00 0.00 0.00 73 1006.6
20260505084537 70 97 0.0 0.0 0.00 0.00 0.00 74 1006.6
20260505083036 70 97 0.0 0.0 0.00 0.00 0.00 74 1006.7
20260505081539 70 97 0.0 0.0 0.00 0.00 0.00 75 1006.9
20260505080030 70 97 0.0 0.0 0.00 0.00 0.00 76 1007.1
20260505074530 70 97 0.0 0.0 0.00 0.00 0.00 76 1007.2
20260505073036 71 103 0.0 0.0 0.00 0.00 0.00 77 1007.1
20260505071527 71 101 0.0 0.0 0.00 0.00 0.00 77 1007.2